Regional Weather Roundup
Issued by NWS

Home | Current Version | Previous Version | Graphics & Text | Print | Product List | Glossary On
Versions: 1 2 3 4 5 6 7 8 9 10 11 12 13 14 15 16 17 18 19 20 21 22 23 24 25 26 27 28 29 30 31 32 33 34 35 36 37 38 39 40 41 42 43 44 45 46 47 48 49 50
000
ASUS43 KLSX 260710
RWRMO

WEATHER SUMMARY FOR MISSOURI
NATIONAL WEATHER SERVICE SPRINGFIELD MO
200 AM CDT WED JUL 26 2017

NOTE: "FAIR" INDICATES FEW OR NO CLOUDS BELOW 12,000 FEET WITH NO
       SIGNIFICANT WEATHER AND/OR OBSTRUCTIONS TO VISIBILITY.
       CURRENT SKY AND/OR WEATHER CONDITIONS ARE NOT AVAILABLE FOR
       CHILLICOTHE AND FARMINGTON.

MOZ001>031-035>038-043-044-053-054-260800-
...NORTHERN AND WESTERN MISSOURI...

CITY           SKY/WX    TMP DP  RH WIND       PRES   REMARKS
KANSAS CTY INT MOCLDY    80  74  81 S8        30.02F
KANSAS C DTWN  MOCLDY    84  74  71 S5        30.01F HX  91
LEE`S SUMMIT   CLEAR     79  73  82 SE7       30.05S
ST JOSEPH      PTCLDY    81  76  84 S7        30.01F
CHILLICOTHE      N/A     77  72  84 CALM      30.05F
KIRKSVILLE     PTCLDY    72  69  90 SE6       30.08F

$$
MOZ066>068-077>081-088>096-101>105-260800-
...SOUTHWEST MISSOURI...

CITY           SKY/WX    TMP DP  RH WIND       PRES   REMARKS
SPRINGFIELD    CLEAR     77  71  82 S5        30.08S
JOPLIN         CLEAR     81  73  76 S8        30.07R
BRANSON        PTCLDY    79  70  73 CALM      30.10S

$$
MOZ032>034-039>042-045>050-055>058-069>072-260800-
...CENTRAL MISSOURI...

CITY           SKY/WX    TMP DP  RH WIND       PRES   REMARKS
COLUMBIA       CLEAR     75  71  87 E6        30.06R
JEFFERSON CITY PTCLDY    76  72  87 CALM      30.04S
ROLLA          PTCLDY    75  72  90 SE3       30.08R
SEDALIA        CLOUDY    77  71  82 SE6       30.06S
WHITEMAN AFB   PTCLDY    76  76 100 S3        30.04S
OSAGE BEACH    CLEAR     74  67  78 CALM      30.06S

$$
MOZ051-052-059>065-260800-
...EAST CENTRAL MISSOURI...

CITY           SKY/WX    TMP DP  RH WIND       PRES   REMARKS
ST LOUIS INTL  CLOUDY    81  70  69 E9        30.08S
SPIRIT OF STL  PTCLDY    79  73  82 VRB7      30.06R
ST CHARLES     CLOUDY    74  72  93 E6        30.07R

$$
MOZ072>076-082>087-097>100-106>115-260800-
...SOUTH CENTRAL AND SOUTHEAST MISSOURI...

CITY           SKY/WX    TMP DP  RH WIND       PRES   REMARKS
CAPE GIRARDEAU PTCLDY    76  73  91 S3        30.06F
FARMINGTON     CLOUDY    76  75  97 S5        30.09F
POPLAR BLUFF   CLEAR     76  74  93 CALM      30.06S
WEST PLAINS    CLEAR     76  72  87 CALM      30.10F

$$



USA.gov is the U.S. government's official web portal to all federal, state and local government web resources and services.